This is the latest recevied weather packets stored in our database for station/object KI5MKI. If no packets are shown the sender has not sent any weather packets the latest 10 day(s).
| Time | Temp. | Humidity | Pressure | Rain* | Wind** | Luminosity | Snow |
|---|---|---|---|---|---|---|---|
| 1778005338 | 26.67° C | 69% | 1005.8 hPa | 0 mm | - | 434 W/m² | - |
| 1778005034 | 27.22° C | 68% | 1006 hPa | 0 mm | - | 483 W/m² | - |
| 1778004732 | 27.22° C | 69% | 1005.8 hPa | 0 mm | - | 550 W/m² | - |
| 1778004428 | 27.22° C | 69% | 1005.8 hPa | 0 mm | - | 526 W/m² | - |
| 1778004125 | 26.67° C | 70% | 1005.8 hPa | 0 mm | - | 760 W/m² | - |
| 1778003821 | 26.11° C | 71% | 1005.7 hPa | 0 mm | - | 782 W/m² | - |
| 1778003517 | 26.11° C | 70% | 1005.8 hPa | 0 mm | - | 672 W/m² | - |
| 1778003214 | 26.11° C | 70% | 1006.1 hPa | 0 mm | - | 636 W/m² | - |
| 1778002910 | 26.67° C | 70% | 1005.9 hPa | 0 mm | - | 637 W/m² | - |
| 1778002607 | 26.11° C | 70% | 1006.2 hPa | 0 mm | - | 697 W/m² | - |
| 1778002304 | 26.11° C | 70% | 1006.2 hPa | 0 mm | - | 735 W/m² | - |
| 1778002001 | 25.56° C | 72% | 1006.2 hPa | 0 mm | - | 557 W/m² | - |
| 1778001698 | 26.11° C | 70% | 1006.1 hPa | 0 mm | - | 474 W/m² | - |
| 1778001398 | 25.56° C | 73% | 1006.4 hPa | 0 mm | - | 593 W/m² | - |
| 1778001095 | 25.56° C | 71% | 1006.7 hPa | 0 mm | - | 458 W/m² | - |
| 1778000792 | 25.56° C | 73% | 1006.8 hPa | 0 mm | - | 758 W/m² | - |
| 1778000488 | 25° C | 72% | 1006.8 hPa | 0 mm | - | 357 W/m² | - |
| 1778000184 | 25° C | 73% | 1006.7 hPa | 0 mm | - | 313 W/m² | - |
| 1777999880 | 25° C | 73% | 1006.4 hPa | 0 mm | - | 340 W/m² | - |
| 1777999575 | 25° C | 73% | 1006.3 hPa | 0 mm | - | 383 W/m² | - |
| 1777999274 | 25° C | 73% | 1006.4 hPa | 0 mm | - | 430 W/m² | - |
| 1777998972 | 25° C | 75% | 1006 hPa | 0 mm | - | 489 W/m² | - |
| 1777998669 | 25° C | 73% | 1006.1 hPa | 0 mm | - | 390 W/m² | - |
| 1777998366 | 25° C | 74% | 1006 hPa | 0 mm | - | 507 W/m² | - |
| 1777998064 | 24.44° C | 76% | 1005.9 hPa | 0 mm | - | 753 W/m² | - |
* Rain latest hour (hover to see other rain measurements)
** Current wind speed in m/s (hover to see current wind gust speed)